EHI
0 0 0 0 0 0 0 0 0 0 0 0 0 0 0 0 0 0 0 0 0 0 0 0 0 0 0 0 0 0 0 0 0 0 0 0 0 0 0 0 0 0 0
0 0 0 0 0 0 0 0 0 0 0 0 0 0 0 0 0 0 0 0 0 0 0 0 0 0 0 0 0 0 0 0 0 0 0 0 0 0 0 0 0 0 0
0 0 0 0 0 0 0 0 0 0 0 0 0 0 0 0 0 0 0 0 0 0 0 0 0 0 0 0 0 0 0 0 0 0 0 0 0 0 0 0 0 0 0
0 0 0 0 0 0 0 0 0 0 0 0 0 0 0 0 0 0 0 0 0 0 0 0 0 0 0 0 0 0 0 0 0 0 0 0 0 0 0 0 0 0 0
0 0 0 0 0 0 0 0 0 0 0 0 0 0 0 0 0 0 0 0 0 0 0 0 0 0 0 0 0 0 0 0 0 0 0 0 0 0 0 0 0 0 0
0 0 0 0 0 0 0 0 0 0 0 0 0 0 0 0 0 0 0 0 0 0 0 0 0 0 0 0 0 0 0 0 0 0 0 0 0 0 0 0 0 0 0
0 0 0 0 0 0 0 0 0 0 0 0 0 0 0 0 0 0 0 0 0 0 0 0 0 0 0 0 0 0 0 0 0 0 0 0 0 0 0 0 0 0 0
0 0 0 0 0 0 0 0 0 0 0 0 0 0 0 0 0 0 0 0 0 0 0 0 0 0 0 0 0 0 0 0 0 0 0 0 0 0 0 0 0 0 0
0 0 0 0 0 0 0 0 0 0 0 0 0 0 0 0 0 0 0 0 0 0 0 0 0 0 0 0 0 0 0 0 0 0 0 0 0 0 0 0 0 0 0
0 0 0 0 0 0 0 0 0 0 0 0 0 0 0 0 0 0 0 0 0 0 0 0 0 0 0 0 0 0 0 0 0 0 0 0 0 0 0 0 0 0 0
0 0 0 0 0 0 0 0 0 0 0 0 0 0 0 0 0 0 0 0 0 0 0 0 0 0 0 0 0 0 0 0 0 0 0 0 0 0 0 0 0 0 0
0 0 0 0 0 0 0 0 0 0 0 0 0 0 0 0 0 0 0 0 0 0 0 0 0 0 0 0 0 0 0 0 0 0 0 0 0 0 0 0 0 0 0
0 0 0 0 0 0 0 0 0 0 0 0 0 0 0 0 0 0 0 0 0 0 0 0 0 0 0 0 0 0 0 0 0 0 0 0 0 0 0 0 0 0 0
0 0 0 0 0 0 0 0 0 0 0 0 0 0 0 0 0 0 0 0 0 0 0 0 0 0 0 0 0 0 0 0 0 0 0 0 0 0 0 0 0 0 0
0 0 0 0 0 0 0 0 0 0 0 0 0 0 0 0 0 0 0 0 0 0 0 0 0 0 0 0 0 0 0 0 0 0 0 0 0 0 0 0 0 0 0
0 0 0 0 0 0 0 0 0 0 0 0 0 0 0 0 0 0 0 0 0 0 0 0 0 0 0 0 0 0 0 0 0 0 0 0 0 0 0 0 0 0 0
0 0 0 0 0 0 0 0 0 0 0 0 0 0 0 0 0 0 0 0 0 0 0 0 0 0 0 0 0 0 0 0 0 0 0 0 0 0 0 0 0 0 0
0 0 0 0 0 0 0 0 0 0 0 0 0 0 0 0 0 0 0 0 0 0 0 0 0 0 0 0 0 0 0 0 0 0 0 0 0 0 0 0 0 0 0
0 0 0 0 0 0 0 0 0 0 0 0 0 0 0 0 0 0 0 0 0 0 0 0 0 0 0 0 0 0 0 0 0 0 0 0 0 0 0 0 0 0 0
0 0 0 0 0 0 0 0 0 0 0 0 0 0 0 0 0 0 0 0 0 0 0 0 0 0 0 0 0 0 0 0 0 0 0 0 0 0 0 0 0 0 0
0 0 0 0 0 0 0 0 0 0 0 0 0 0 0 0 0 0 0 0 0 0 0 0 0 0 0 0 0 0 0 0 0 0 0 0 0 0 0 0 0 0 0
0 0 0 0 0 0 0 0 0 0 0 0 0 0 0 0 0 0 0 0 0 0 0 0 0 0 0 0 0 0 0 0 0 0 0 0 0 0 0 0 0 0 0
0 0 0 0 0 0 0 0 0 0 0 0 0 0 0 0 0 0 0 0 0 0 0 0 0 0 0 0 0 0 0 0 0 0 0 0 0 0 0 0 0 0 0
0 0 0 0 0 0 0 0 0 0 0 0 0 0 0 0 0 0 0 0 0 0 0 0 0 0 0 0 0 0 0 0 0 0 0 0 0 0 0 0 0 0 0
0 0 0 0 0 0 0 0 0 0 0 0 0 0 0 0 0 0 0 0 0 0 0 0 0 0 0 0 0 0 0 0 0 0 0 0 0 0 0 0 0 0 0
0 0 0 0 0 0 0 0 0 0 0 0 0 0 0 0 0 0 0 0 0 0 0 0 0 0 0 0 0 0 0 0 0 0 0 0 0 0 0 0 0 0 0
Wind_Speed
5 5 4 4 4 3 4 4 4 4 5 5 5 5 5 5 5 5 4 10 12 12 13 13 12 11 10 10 9 9 8 8 8 7 7 7 6 6 6 6 6 6 7
6 6 6 5 5 5 5 5 6 5 5 4 5 6 6 5 5 6 5 7 12 13 14 14 14 13 12 11 11 10 9 9 8 8 7 6 6 5 5 5 5 5 5
7 7 6 6 6 6 6 5 5 4 4 5 6 6 5 5 5 6 6 5 6 11 14 16 15 15 14 13 13 12 11 10 9 8 7 6 6 5 4 4 3 3 3
8 7 6 6 7 6 5 5 5 5 5 5 5 4 4 4 6 6 6 6 5 5 10 15 16 16 16 15 14 13 12 11 10 9 8 7 6 5 4 3 2 1 0
8 7 6 6 6 6 6 6 6 5 5 5 5 5 4 4 5 6 7 7 7 7 6 11 15 15 16 17 16 15 14 13 11 10 9 8 7 6 4 3 3 2 2
7 7 6 6 6 5 6 5 6 5 5 5 5 5 4 5 4 6 7 7 7 9 8 8 8 10 15 17 18 17 16 14 13 11 10 9 8 6 6 5 4 4 4
5 6 5 6 6 6 7 7 6 6 5 3 2 3 3 4 5 5 5 6 8 9 8 9 7 6 7 16 18 18 17 15 14 12 11 10 9 8 7 6 5 5 5
5 5 6 6 6 6 7 7 6 4 4 4 4 2 3 4 5 6 5 6 8 6 8 10 8 8 6 5 10 16 16 16 14 13 12 11 10 9 8 7 7 7 7
4 4 5 5 5 6 6 7 7 7 6 5 4 5 4 6 4 3 5 6 6 5 6 6 8 8 8 6 6 11 13 14 14 13 12 11 10 10 9 8 8 8 8
3 4 4 4 5 4 5 6 6 6 6 5 4 5 5 3 3 3 3 3 4 5 6 5 6 7 7 5 7 11 12 12 14 13 12 11 11 10 10 9 9 9 9
3 3 3 3 4 4 5 5 5 6 6 6 5 4 5 4 4 4 5 3 2 2 3 3 3 4 5 6 5 9 14 15 15 14 13 12 10 10 10 10 10 10 10
2 4 3 2 3 3 3 4 4 5 5 6 5 4 4 4 5 5 7 5 4 2 1 1 1 2 3 4 7 12 15 16 15 14 13 12 10 9 10 11 11 11 11
3 4 4 3 2 3 3 2 2 3 3 4 4 4 5 5 3 3 5 4 4 1 1 1 0 0 1 2 4 12 13 15 14 14 13 11 10 9 10 11 11 12 12
2 4 4 4 4 4 3 2 1 2 1 2 2 2 2 2 2 3 3 3 3 2 2 3 0 0 0 1 4 9 6 13 12 11 11 10 9 9 10 10 11 12 13
3 5 5 5 5 5 5 3 3 3 2 2 2 2 1 2 2 1 1 2 3 4 4 3 1 1 1 1 4 3 3 9 10 10 9 9 9 10 11 11 12 13 13
5 5 6 6 6 7 6 5 4 4 5 5 4 4 4 3 3 3 2 2 1 2 1 1 1 1 1 2 4 3 2 7 7 8 8 9 10 11 11 12 13 13 13
6 7 6 6 7 7 7 6 7 7 7 7 6 7 7 6 4 4 4 3 3 2 1 1 2 2 1 1 1 2 2 1 1 6 8 9 10 11 12 12 13 13 14
7 7 7 7 8 8 8 8 8 8 8 8 7 7 7 5 6 5 4 5 4 3 1 2 2 2 2 1 2 1 1 1 1 5 8 9 10 11 12 12 13 13 13
7 7 7 8 8 8 8 8 8 8 9 8 8 7 6 6 6 5 5 5 4 4 3 3 2 2 2 1 2 1 1 1 1 4 7 8 10 11 12 12 13 13 13
7 7 7 7 7 7 7 7 8 8 9 8 8 7 6 6 5 5 5 5 4 4 4 3 3 2 2 2 2 1 1 1 2 2 4 5 8 10 12 13 13 13 13
7 7 7 7 6 5 6 7 7 8 8 8 7 7 7 8 8 6 4 4 4 3 3 3 2 2 2 1 1 1 1 1 2 1 2 2 4 4 6 10 12 13 13
7 7 7 7 6 6 12 13 9 7 6 7 6 6 6 8 10 11 10 8 6 3 2 2 1 1 1 1 1 1 1 1 3 2 2 4 3 5 5 4 10 13 13
6 6 6 6 6 8 13 13 12 7 6 5 5 5 4 6 7 5 7 10 9 9 6 2 1 0 1 1 0 1 1 2 3 3 2 4 3 4 4 6 12 13 12
4 4 5 5 5 7 11 11 11 6 5 4 4 3 3 4 3 4 4 5 5 5 5 2 1 2 3 3 3 3 3 2 3 3 2 3 3 3 4 4 10 10 8
3 3 3 4 4 5 9 9 8 3 4 4 3 3 2 3 6 7 4 3 4 4 6 6 5 4 6 6 3 1 1 1 3 3 1 2 3 4 4 3 4 6 8
3 3 3 3 3 3 6 8 7 2 3 2 3 3 5 4 6 6 2 1 3 3 3 4 5 6 5 5 6 1 1 1 2 3 2 1 2 3 5 3 2 3 5
Wind_Direction
192 193 199 200 201 198 200 208 218 225 232 240 242 238 234 217 204 198 204 201 194 191 189 188 188 188 185 181 175 169 164 159 153 146 139 132 124 116 110 102 94 86 79
192 193 199 202 206 206 206 208 215 222 229 230 237 233 230 218 209 202 203 204 201 197 196 196 196 196 195 192 187 182 178 174 169 163 156 149 141 133 123 112 101 89 78
194 195 200 204 209 208 209 213 221 224 232 231 235 232 226 217 210 207 206 204 205 204 202 203 203 202 202 200 196 192 189 186 182 178 173 168 162 156 147 134 118 100 78
198 197 202 208 206 204 206 211 215 220 229 229 231 233 224 215 212 210 208 207 205 206 210 210 208 208 207 206 204 199 197 194 193 191 188 185 182 179 175 168 163 156 54
207 205 210 210 202 205 208 212 211 208 221 228 230 233 228 220 215 210 210 211 210 208 206 214 210 209 210 211 210 207 203 200 200 200 199 197 197 199 201 206 215 239 265
215 215 220 216 205 208 214 213 214 212 216 219 229 236 235 232 224 217 215 212 213 213 209 210 208 210 209 211 214 213 208 205 204 205 207 207 209 213 218 226 238 255 271
220 219 224 222 215 218 220 216 215 220 225 200 206 257 267 246 238 232 222 217 218 216 210 211 208 204 210 213 214 216 214 210 209 209 211 213 216 222 229 237 248 261 273
231 227 227 228 223 225 227 222 214 216 220 191 188 209 268 283 254 234 221 223 225 219 217 215 210 207 204 203 212 213 215 215 215 215 216 219 224 229 237 246 256 266 273
245 239 235 232 230 224 230 230 222 220 228 218 201 190 208 235 256 269 238 229 223 220 225 219 214 211 207 203 202 208 204 211 218 221 223 228 233 237 244 251 262 271 277
271 261 254 246 241 233 233 234 227 224 224 229 224 225 225 205 214 267 271 250 231 223 221 219 215 209 203 198 197 195 194 202 215 225 231 236 241 244 251 258 267 275 284
314 300 280 267 258 249 244 241 233 226 223 228 220 215 232 238 226 238 265 261 261 248 233 223 212 205 199 193 190 194 196 205 215 225 233 239 247 256 265 274 281 287 291
345 346 330 308 287 276 267 260 253 243 238 237 233 217 211 214 217 223 245 247 242 243 260 254 235 219 200 188 193 195 199 202 212 223 231 237 244 259 274 282 287 292 293
353 347 354 348 331 314 304 294 277 267 259 252 247 240 235 238 229 227 242 249 241 231 280 290 337 281 193 172 189 191 199 202 209 218 226 237 250 265 275 281 290 293 293
351 347 357 4 1 358 356 352 343 320 319 289 283 270 254 255 247 230 228 229 248 242 237 235 116 253 111 141 184 179 195 200 207 215 230 247 262 277 282 285 287 288 291
11 13 16 18 15 17 17 21 31 13 15 20 10 11 7 3 5 342 303 227 226 241 241 207 178 102 106 105 170 149 148 197 205 221 234 249 266 273 274 277 280 282 284
25 26 30 31 30 29 28 36 39 32 45 38 36 46 45 34 36 32 27 10 327 244 244 71 90 73 121 148 162 132 161 196 216 233 244 256 265 271 274 277 278 279 279
34 36 36 40 40 37 35 45 48 46 54 51 47 54 52 45 45 36 35 34 24 25 159 75 58 58 79 118 111 111 113 145 251 259 269 274 276 277 277 277 278 278 278
41 41 43 47 47 44 44 50 54 53 58 56 51 55 52 52 50 41 41 40 32 23 62 95 62 54 58 103 97 117 143 178 224 270 277 278 279 279 279 279 278 277 278
48 48 50 52 50 49 50 53 60 61 61 58 55 56 51 56 55 47 48 45 35 33 40 76 68 53 52 66 79 73 73 27 270 275 283 287 289 289 289 289 285 283 284
55 53 54 55 57 56 55 57 62 63 63 58 54 52 49 54 59 55 52 46 45 45 47 60 61 49 44 51 67 55 6 349 297 298 298 298 299 301 301 296 292 291 289
58 54 56 53 54 64 66 67 65 66 65 60 51 44 46 55 60 62 65 54 50 48 45 50 49 40 28 30 27 15 339 328 301 306 320 299 298 291 293 293 292 288 283
58 56 54 53 52 60 72 75 77 66 63 62 55 42 42 43 44 45 52 53 51 57 53 52 39 33 349 336 346 3 14 8 316 309 316 290 272 275 275 264 279 284 283
65 61 55 53 52 61 70 74 75 72 64 58 53 44 40 35 37 33 36 35 29 33 44 97 111 270 274 263 242 292 258 237 252 271 303 288 277 274 271 280 294 293 291
72 69 60 53 50 58 69 74 77 68 62 55 52 52 46 12 10 51 41 27 16 9 9 37 198 237 240 239 222 222 234 258 265 261 220 270 293 280 289 289 299 297 302
86 77 69 61 52 45 65 75 79 64 55 39 28 32 37 3 4 32 48 24 4 346 356 0 352 336 325 319 301 220 276 311 304 290 242 254 299 305 294 290 303 315 320
109 98 81 63 52 26 60 74 83 76 58 32 14 4 3 2 1 11 59 18 333 312 327 342 349 352 354 349 359 34 175 191 257 289 287 280 297 330 315 291 267 275 290